Temp
60 60 59 59 59 60 60 59 60 60 60 61 61 61 60 60 60 65 67 74 74 72 74 77 76 79 80 77 78 75 68 64 66 67 74 78 78 81 85 82 84 87 87 89 85
60 59 60 60 59 59 59 59 59 60 60 60 60 60 60 60 58 59 72 72 73 73 79 76 73 76 74 74 75 72 66 68 76 77 75 76 77 78 78 79 80 84 88 88 85
59 60 60 59 59 59 59 58 58 59 60 60 59 60 60 61 59 69 74 71 72 74 84 82 81 76 71 73 73 72 66 74 77 78 77 77 77 81 77 75 82 80 83 87 88
58 59 59 59 59 59 59 58 59 59 59 59 59 59 60 58 57 73 72 72 73 76 77 77 77 70 70 67 73 66 72 75 77 79 77 75 79 75 77 78 84 85 85 85 85
58 58 58 58 58 58 58 59 58 59 58 58 59 59 58 50 59 75 70 71 78 73 72 73 72 72 68 70 73 67 72 75 76 77 77 77 73 73 75 82 86 86 84 83 85
57 57 58 58 58 58 57 57 57 57 58 58 58 59 52 41 67 70 69 69 75 75 71 73 73 76 72 71 70 75 72 73 76 75 76 72 73 75 77 82 82 82 83 85 85
57 57 57 57 58 58 57 57 56 57 58 59 59 58 50 48 66 69 68 65 67 69 71 75 76 71 72 68 75 72 66 70 70 72 71 75 68 70 79 82 79 80 82 84 85
57 57 57 57 57 57 58 57 56 57 58 59 59 56 46 63 67 63 65 63 67 69 68 76 78 73 69 71 68 66 66 61 72 72 73 71 63 77 81 79 78 79 80 81 83
57 56 56 57 57 57 57 56 57 58 59 59 55 51 45 64 58 65 65 60 68 68 70 75 74 68 67 62 59 61 59 58 64 71 71 69 67 77 79 76 75 77 79 81 82
57 56 56 56 56 56 55 55 57 58 59 60 59 47 55 57 62 66 68 64 62 66 64 65 66 62 63 60 50 55 53 59 60 69 71 69 67 74 75 76 75 77 79 79 79
56 56 56 56 56 55 54 53 53 50 52 49 50 50 55 64 68 65 67 60 60 62 57 62 57 54 60 61 63 64 60 59 65 70 67 67 67 70 74 76 75 75 76 77 77
56 56 56 56 55 54 54 49 48 49 41 53 51 53 58 62 51 61 68 57 54 52 60 57 53 63 66 64 60 60 59 59 65 68 66 66 65 70 72 73 75 76 76 77 78
55 55 55 55 55 52 49 49 56 54 40 47 53 51 53 56 49 53 62 59 54 52 56 55 61 65 61 61 57 58 56 58 59 65 66 63 61 66 73 74 76 77 78 77 77
55 55 55 55 51 51 49 55 56 53 35 43 47 53 55 56 48 60 64 62 57 52 56 58 66 63 60 58 60 53 63 62 60 57 53 64 51 63 68 69 73 76 77 78 78
54 55 55 55 49 48 53 55 57 51 25 50 49 64 60 53 56 59 64 60 53 55 57 54 58 59 57 59 62 58 65 61 60 57 56 57 52 59 67 64 70 75 77 78 73
54 55 54 53 52 55 57 54 52 34 24 44 52 50 52 54 54 58 57 62 63 56 59 60 67 65 64 65 64 65 63 62 61 58 46 55 54 55 63 66 71 77 79 72 68
54 54 52 54 48 53 54 50 32 25 46 41 42 48 49 47 47 49 49 48 48 44 46 55 58 64 67 61 65 63 57 47 44 44 44 59 53 55 68 71 72 75 79 71 68
53 51 50 54 54 53 49 39 24 36 38 47 44 47 44 46 40 45 45 43 52 52 51 46 44 58 65 62 58 58 57 50 39 42 50 57 50 56 70 75 76 77 77 71 67
51 51 50 52 52 51 41 28 32 36 41 40 43 40 41 45 43 43 39 37 48 54 44 48 49 63 65 68 65 57 54 63 54 53 52 54 56 62 70 71 72 74 71 68 67
47 46 48 51 51 47 37 31 34 43 44 43 33 40 35 39 40 41 36 39 37 46 49 50 45 60 63 68 68 62 65 50 55 44 41 50 51 59 65 69 73 72 69 66 66
44 42 50 54 48 39 31 33 38 46 46 39 37 37 39 38 41 39 38 42 39 42 47 50 49 54 62 58 58 59 57 59 59 56 47 46 54 67 70 72 73 74 69 66 66
43 38 50 52 37 36 33 37 40 43 47 43 43 39 38 39 38 39 38 42 45 42 36 46 45 47 54 65 69 65 60 59 52 47 55 53 55 68 70 72 73 72 68 68 69
39 37 50 49 31 33 38 39 41 41 41 41 39 43 44 39 35 41 43 50 49 43 37 41 44 44 48 56 63 59 62 61 61 59 51 51 56 70 69 71 71 71 68 67 68
41 33 41 42 41 35 34 36 36 45 41 40 41 44 41 40 44 38 39 47 50 48 46 44 41 42 46 50 55 54 58 61 58 53 54 55 60 69 71 73 70 69 68 68 68
39 36 38 32 36 36 36 36 34 35 42 44 40 40 36 34 38 34 36 39 46 46 46 43 37 42 45 47 49 52 58 59 55 58 53 56 59 67 71 74 73 70 68 67 68
37 38 42 36 38 36 36 36 35 38 38 38 37 41 40 35 37 34 37 37 36 44 42 44 39 42 45 51 52 50 56 60 60 61 61 62 61 72 75 73 70 68 68 69 70
41 42 40 38 36 33 35 34 35 37 42 43 41 38 37 42 45 45 46 46 44 39 40 41 40 40 43 48 50 47 55 57 60 63 63 57 65 71 70 71 71 70 70 71 72
MSLP
1020.86 1020.66 1020.50 1020.32 1020.00 1019.68 1019.27 1018.93 1018.71 1018.36 1017.83 1017.42 1017.27 1017.07 1016.85 1016.41 1015.55 1014.84 1013.43 1011.61 1011.37 1011.53 1011.22 1011.54 1012.25 1012.43 1011.98 1011.22 1011.45 1012.12 1011.23 1009.87 1009.17 1008.67 1007.35 1007.77 1007.42 1007.55 1007.40 1007.12 1007.12 1006.89 1006.52 1006.48 1006.87
1020.83 1020.53 1020.26 1020.01 1019.79 1019.40 1018.92 1018.79 1018.42 1018.07 1017.89 1017.62 1017.33 1017.11 1017.04 1016.37 1015.39 1014.05 1011.43 1010.80 1010.41 1011.11 1011.29 1010.88 1011.40 1011.95 1011.81 1011.41 1010.90 1010.95 1010.36 1009.08 1007.86 1007.75 1007.63 1007.95 1007.87 1008.03 1007.77 1007.14 1006.23 1006.48 1006.34 1006.66 1006.87
1020.74 1020.34 1020.02 1019.67 1019.16 1018.97 1018.78 1018.56 1018.39 1018.08 1017.69 1017.57 1017.40 1017.11 1016.56 1016.09 1014.72 1011.61 1010.42 1010.67 1010.49 1010.76 1010.57 1010.71 1011.00 1011.34 1011.19 1011.09 1010.44 1009.57 1008.77 1008.15 1007.71 1007.59 1008.02 1007.74 1007.60 1007.79 1007.51 1006.44 1005.65 1005.91 1005.59 1005.78 1006.02
1020.57 1020.16 1019.84 1019.50 1019.19 1018.85 1018.68 1018.49 1018.21 1017.95 1017.65 1017.48 1017.15 1016.87 1016.44 1016.00 1013.50 1010.41 1010.60 1010.55 1009.85 1010.03 1010.81 1010.55 1010.71 1010.67 1010.34 1009.77 1009.65 1009.01 1008.37 1008.38 1007.28 1007.96 1008.06 1007.72 1007.56 1007.17 1007.38 1005.76 1005.41 1005.54 1005.70 1005.44 1005.20
1020.47 1020.09 1019.73 1019.40 1019.08 1018.76 1018.49 1018.03 1017.68 1017.58 1017.49 1017.28 1016.90 1016.66 1016.22 1015.48 1012.30 1010.28 1010.71 1010.63 1010.15 1010.62 1010.44 1009.92 1009.69 1009.59 1009.01 1008.87 1008.84 1008.14 1007.96 1007.84 1007.84 1007.87 1007.92 1008.01 1007.41 1006.89 1006.24 1004.93 1005.23 1005.11 1004.86 1004.68 1004.52
1020.48 1020.08 1019.68 1019.29 1018.88 1018.55 1018.15 1017.75 1017.37 1016.99 1016.79 1016.63 1016.54 1016.52 1016.31 1014.40 1011.63 1011.01 1010.85 1010.67 1010.42 1010.12 1010.53 1010.26 1009.46 1009.14 1008.73 1008.19 1007.83 1007.26 1007.76 1007.48 1007.73 1007.66 1007.39 1007.39 1006.35 1006.90 1005.64 1004.42 1004.68 1004.49 1004.06 1003.79 1003.60
1020.31 1019.91 1019.45 1019.01 1018.56 1018.14 1017.64 1017.15 1016.86 1016.44 1016.02 1015.83 1016.05 1016.17 1015.11 1012.62 1011.36 1011.15 1011.14 1011.13 1010.96 1010.57 1010.22 1009.93 1009.74 1009.58 1008.96 1008.21 1007.73 1007.60 1007.52 1007.38 1007.53 1007.29 1007.07 1006.95 1005.63 1005.63 1004.62 1004.19 1004.30 1003.77 1003.36 1003.01 1002.72
1020.08 1019.67 1019.22 1018.71 1018.25 1017.69 1017.12 1016.70 1016.29 1015.79 1015.46 1015.47 1015.59 1015.59 1013.40 1011.76 1011.45 1011.17 1011.01 1010.26 1010.41 1010.74 1010.81 1009.91 1009.59 1009.33 1009.18 1008.62 1008.05 1007.54 1007.36 1006.28 1006.38 1006.59 1006.46 1006.94 1003.33 1004.36 1003.84 1003.92 1003.52 1003.26 1002.85 1002.48 1002.08
1019.77 1019.37 1018.96 1018.46 1017.94 1017.37 1016.79 1016.26 1015.55 1014.97 1014.47 1014.52 1014.96 1014.83 1012.42 1011.19 1010.71 1009.91 1010.29 1010.03 1009.51 1009.89 1010.15 1009.65 1009.35 1008.92 1008.86 1008.56 1007.89 1006.91 1005.42 1005.50 1005.91 1005.97 1005.76 1005.89 1003.29 1003.67 1003.79 1003.67 1003.26 1002.74 1002.21 1001.83 1001.47
1019.67 1019.20 1018.72 1018.19 1017.65 1017.12 1016.48 1015.65 1014.79 1014.67 1014.45 1014.28 1013.97 1014.21 1011.48 1010.20 1009.58 1009.24 1009.23 1009.47 1009.42 1008.93 1009.53 1009.17 1008.49 1007.86 1007.42 1007.06 1004.13 1004.98 1005.79 1005.62 1005.35 1005.33 1005.01 1004.66 1003.25 1003.36 1003.55 1002.91 1002.54 1002.21 1001.63 1001.39 1000.98
1019.55 1019.03 1018.53 1018.01 1017.45 1016.89 1016.08 1015.46 1014.98 1014.79 1014.41 1013.55 1012.93 1011.89 1010.26 1009.23 1008.85 1008.38 1008.88 1009.37 1009.35 1008.02 1006.96 1007.34 1007.20 1004.39 1004.16 1005.14 1005.50 1005.12 1005.07 1004.73 1004.50 1004.54 1004.59 1003.66 1003.12 1003.23 1002.69 1002.08 1001.99 1001.67 1001.14 1000.80 1000.33
1019.34 1018.83 1018.29 1017.82 1017.29 1016.84 1016.38 1015.91 1016.11 1016.37 1014.40 1012.61 1011.58 1010.88 1009.95 1009.43 1009.04 1007.87 1008.37 1008.49 1007.93 1006.33 1006.20 1006.51 1003.82 1001.67 1004.58 1005.38 1005.61 1005.15 1004.65 1004.67 1004.76 1004.67 1004.39 1003.55 1002.72 1002.68 1002.30 1001.79 1001.66 1000.98 1000.38 1000.03 999.91
1019.10 1018.62 1018.08 1017.55 1017.01 1017.00 1016.71 1016.20 1016.07 1016.00 1014.92 1011.21 1010.07 1009.68 1009.24 1009.13 1008.82 1007.17 1007.33 1006.92 1006.45 1005.83 1004.33 1002.38 998.67 1003.61 1003.89 1004.06 1004.76 1004.41 1004.16 1004.85 1004.50 1004.48 1004.33 1003.81 1002.39 1002.06 1001.50 1001.29 1000.89 1000.21 999.94 999.48 999.73
1018.78 1018.20 1017.72 1017.30 1017.03 1016.91 1016.29 1016.07 1016.06 1015.89 1014.32 1010.60 1009.18 1008.45 1008.25 1008.09 1007.69 1006.43 1006.05 1005.95 1005.42 1004.28 1004.24 1002.92 1001.42 1001.75 1002.38 1002.65 1003.90 1003.40 1004.09 1004.86 1004.74 1004.94 1003.59 1003.92 1001.41 1001.45 1000.97 1000.36 999.81 998.93 999.09 998.89 999.34
1018.57 1018.00 1017.56 1017.22 1017.09 1016.53 1016.17 1016.10 1015.72 1015.56 1012.90 1009.08 1008.16 1007.22 1007.18 1007.31 1006.68 1004.66 1005.57 1005.44 1004.13 1003.71 1003.44 1000.71 1000.78 1001.10 1001.45 1001.11 1002.78 1002.17 1003.94 1004.28 1004.54 1004.27 1004.17 1003.60 1002.78 1000.88 1000.73 999.61 998.28 997.98 998.29 998.91 999.45
1018.08 1017.44 1017.05 1016.60 1016.59 1016.05 1015.99 1015.92 1015.54 1014.69 1011.27 1008.49 1007.75 1007.30 1006.75 1006.57 1006.29 1005.61 1005.09 1005.09 1004.13 1003.82 1002.64 1001.27 1000.74 1000.45 999.28 1001.41 1001.96 1002.89 1003.31 1003.86 1004.35 1004.07 1003.09 1002.64 1002.56 1000.29 999.22 998.15 997.13 996.92 997.57 998.54 999.40
1017.58 1016.94 1016.55 1016.41 1016.25 1016.21 1016.08 1015.54 1015.21 1013.24 1010.43 1008.97 1008.40 1007.96 1007.05 1006.64 1006.40 1006.65 1005.47 1004.74 1003.69 1003.38 1002.05 1001.49 1000.56 999.61 999.48 1000.34 1001.33 1002.23 1002.64 1003.23 1003.68 1003.22 1001.87 1001.82 1001.58 998.83 997.58 997.25 997.14 996.90 997.29 998.61 999.75
1017.18 1016.60 1016.51 1016.15 1016.22 1016.04 1016.21 1015.67 1014.42 1012.14 1010.91 1009.88 1009.27 1008.19 1007.36 1007.21 1007.94 1007.67 1006.39 1005.24 1004.40 1003.37 1001.97 1000.90 1000.09 998.85 998.32 998.50 999.03 1000.66 1001.09 1000.75 1001.10 1001.12 1000.77 1000.75 1000.14 997.60 996.54 995.81 996.37 996.77 997.37 998.62 999.89
1016.83 1016.56 1016.38 1016.28 1016.24 1016.25 1016.19 1015.25 1013.60 1012.44 1011.68 1010.75 1009.62 1008.53 1007.68 1007.67 1007.91 1007.57 1008.06 1007.36 1005.38 1004.37 1003.66 1000.83 998.88 997.79 997.76 997.91 998.48 999.51 999.67 1000.44 1000.27 1000.68 1000.01 999.56 998.96 997.26 995.92 995.61 995.68 996.08 997.35 998.57 999.89
1017.11 1016.84 1016.50 1016.34 1016.39 1016.34 1016.06 1014.94 1014.06 1012.95 1012.13 1011.39 1010.56 1009.55 1008.79 1008.39 1007.97 1007.68 1008.56 1008.50 1008.05 1006.89 1005.79 1002.40 999.84 997.74 997.57 997.79 997.64 997.47 999.38 1000.29 1000.05 999.63 999.14 998.37 997.66 995.70 995.12 994.93 995.15 995.96 997.14 998.70 999.84
1017.40 1016.93 1016.74 1016.43 1016.62 1016.40 1015.75 1014.91 1013.95 1012.80 1012.16 1011.60 1010.71 1010.09 1009.53 1009.00 1008.45 1008.07 1008.18 1008.33 1008.69 1007.47 1006.03 1003.85 1001.36 997.94 997.22 995.93 995.61 997.37 997.79 998.37 998.85 998.87 997.97 997.21 996.05 995.11 994.33 994.44 994.87 995.73 996.99 998.26 999.47
1017.91 1017.31 1016.70 1016.60 1016.70 1016.57 1015.95 1015.27 1014.51 1012.84 1012.19 1011.61 1011.00 1010.76 1009.99 1009.57 1008.75 1008.25 1007.83 1007.63 1008.48 1008.49 1007.20 1005.31 1002.90 999.25 996.14 996.16 996.01 996.08 996.42 997.38 997.51 997.91 997.50 996.96 995.62 994.85 994.59 994.83 995.07 995.72 997.19 998.44 999.25
1018.30 1017.92 1016.82 1016.62 1016.83 1016.35 1015.89 1015.02 1014.32 1013.13 1012.57 1011.86 1011.24 1010.66 1010.14 1009.60 1009.13 1008.19 1007.63 1007.34 1007.80 1008.04 1007.99 1006.76 1003.57 1000.25 998.15 997.45 996.37 995.62 996.27 996.89 997.22 997.37 997.01 996.64 995.40 994.86 994.72 994.71 995.28 995.82 997.09 998.52 999.30
1018.62 1018.15 1017.38 1017.06 1017.28 1017.01 1016.20 1014.96 1014.16 1013.28 1012.71 1012.60 1011.49 1010.84 1010.14 1009.42 1009.04 1008.59 1008.19 1007.38 1007.38 1007.33 1007.65 1006.92 1004.76 1001.99 998.80 997.62 996.80 996.01 996.19 996.73 997.10 996.71 996.51 995.87 995.55 994.42 994.19 994.34 995.53 996.19 997.10 998.26 999.34
1019.14 1019.02 1018.84 1017.96 1017.24 1017.08 1016.64 1015.60 1014.55 1013.58 1012.94 1012.27 1011.48 1011.15 1011.02 1010.06 1009.22 1008.80 1008.66 1008.15 1007.58 1007.69 1007.06 1006.62 1004.85 1003.02 1001.06 999.67 998.56 997.11 996.12 996.32 996.28 996.51 996.19 995.98 995.28 994.08 993.92 994.37 994.90 996.03 997.40 998.22 999.01
1019.53 1019.20 1018.68 1018.01 1017.52 1017.07 1016.33 1015.46 1014.74 1013.93 1013.50 1012.26 1011.91 1011.27 1011.01 1010.55 1009.94 1009.16 1008.87 1008.27 1007.64 1007.43 1007.03 1006.42 1005.02 1003.60 1000.91 999.79 998.82 997.70 996.69 996.11 996.23 996.34 996.13 995.77 994.70 994.57 994.47 994.87 995.09 995.72 996.87 997.46 998.13
1019.52 1019.29 1018.76 1017.67 1017.15 1016.85 1015.98 1015.55 1014.94 1014.40 1013.03 1012.60 1012.01 1011.47 1010.53 1009.81 1009.49 1009.19 1008.73 1008.31 1008.04 1007.64 1006.85 1006.20 1005.17 1003.72 1000.77 1000.08 998.90 997.57 996.43 996.42 996.39 996.44 996.56 995.78 994.73 994.77 994.62 994.54 994.68 995.27 996.08 996.38 997.15
Wind_Speed
13 13 12 12 14 14 14 13 14 15 16 16 15 15 17 19 20 5 12 9 8 5 5 10 7 7 6 7 7 2 6 11 9 9 8 1 3 1 2 7 5 6 11 6 3
13 13 14 13 12 12 14 15 14 14 14 15 14 14 16 18 6 10 10 12 15 11 10 14 11 12 5 6 8 9 12 15 14 12 11 3 6 6 6 11 20 15 13 9 5
16 16 15 15 15 14 14 14 14 16 14 14 15 15 15 16 6 5 10 15 22 14 15 10 9 12 12 6 10 10 20 24 20 15 8 14 12 10 13 19 20 17 19 18 13
16 16 16 17 17 17 16 15 15 13 14 14 13 13 14 5 9 7 16 13 15 15 16 13 14 12 12 17 15 14 18 23 25 17 14 20 15 16 18 27 24 21 18 19 19
18 18 17 17 17 18 17 18 17 15 13 13 12 11 6 5 10 3 14 12 6 7 15 18 20 20 19 15 19 19 21 19 20 22 20 19 22 22 23 28 22 20 19 19 18
17 18 18 18 19 19 18 17 17 17 16 14 11 11 5 14 8 10 11 10 4 5 8 15 9 14 13 14 21 10 23 24 20 18 20 20 27 15 22 24 20 19 21 22 20
17 17 18 18 19 20 19 19 17 19 19 17 11 9 13 23 9 9 17 5 3 2 12 13 15 6 3 8 15 14 16 14 13 18 14 12 23 23 27 23 18 20 21 21 22
17 17 18 19 19 20 21 20 21 23 21 17 11 8 11 10 11 17 16 11 12 15 8 10 13 14 9 4 2 11 9 17 13 19 12 12 24 16 17 13 15 17 17 17 20
19 18 19 19 19 20 21 21 25 16 9 4 5 6 12 6 8 12 15 14 9 13 12 7 10 10 7 15 9 9 16 18 14 10 4 16 21 11 11 11 15 19 20 19 20
19 18 19 20 20 20 19 23 15 2 5 6 2 4 6 3 3 9 6 15 10 12 9 11 9 12 15 18 25 16 11 11 12 10 18 21 25 17 16 15 17 20 20 19 19
21 19 19 20 20 19 14 4 2 2 2 8 6 8 16 9 10 7 3 5 9 15 17 21 13 27 31 28 19 18 19 23 18 14 13 19 21 14 15 20 20 20 20 19 19
22 22 21 18 19 14 5 3 4 2 12 15 23 23 24 12 10 13 9 9 11 17 19 13 31 31 20 21 24 24 22 20 15 12 10 15 23 16 14 19 21 22 21 20 19
20 21 20 18 18 2 6 3 4 6 6 15 10 10 10 10 14 20 13 10 11 19 28 25 37 21 21 24 25 26 28 22 21 9 11 11 22 17 21 14 15 20 18 18 16
20 19 18 18 1 6 6 2 6 2 5 7 4 6 6 6 7 15 18 15 12 21 21 24 26 20 25 29 22 27 23 21 21 11 15 3 18 13 19 22 21 21 15 15 10
19 19 16 10 8 4 4 6 9 4 6 3 3 1 1 5 11 3 14 19 24 11 17 18 16 25 28 27 25 19 17 17 20 17 17 18 15 15 12 19 24 19 15 6 1
20 21 17 5 2 8 6 8 2 4 8 2 3 8 10 3 11 8 2 18 15 16 21 18 10 25 30 19 23 12 12 16 12 11 14 18 15 14 16 20 16 12 9 2 5
23 23 11 3 3 1 4 3 3 6 8 1 6 10 12 9 8 19 15 12 13 19 19 16 15 4 13 19 21 20 14 7 7 8 10 15 12 19 14 16 15 15 8 5 7
23 15 3 3 2 3 3 1 6 2 7 14 11 15 11 9 6 18 16 10 19 17 8 14 12 20 18 18 18 26 21 9 10 8 9 7 11 10 20 21 20 16 8 5 9
15 3 2 2 4 2 2 3 3 3 6 11 13 8 3 6 7 6 10 8 10 15 9 12 17 15 18 16 23 24 21 14 3 1 5 6 6 12 15 9 11 14 7 8 11
4 3 4 8 2 3 2 3 4 8 14 9 7 6 7 7 7 3 2 2 11 14 12 7 8 14 21 23 25 19 19 12 10 11 9 6 4 9 9 14 9 9 10 11 12
3 2 5 5 1 2 3 4 6 9 10 5 5 7 8 9 9 6 4 5 5 15 14 9 7 12 20 25 24 13 23 8 9 5 6 3 5 8 12 13 14 10 12 15 16
4 1 3 1 1 1 4 9 8 9 7 6 5 9 12 11 10 5 7 5 3 6 8 7 7 6 25 11 22 20 20 21 11 11 5 2 4 3 8 2 1 8 11 13 15
5 3 1 2 3 4 7 8 6 8 9 5 5 6 6 5 5 7 7 2 7 4 3 7 6 10 12 9 17 27 22 22 8 3 17 9 2 1 3 1 3 7 12 11 14
2 4 3 3 2 5 8 5 7 9 5 7 11 8 7 6 5 5 8 3 8 2 6 5 5 8 6 6 4 24 25 21 19 10 10 18 11 16 7 4 5 6 12 13 14
3 3 1 5 3 10 6 5 9 8 5 7 5 3 9 6 11 1 3 6 4 3 2 1 4 5 13 13 9 3 24 22 24 19 15 11 24 21 14 9 1 8 12 15 16
2 3 1 5 7 9 4 4 9 9 7 8 6 14 14 10 12 17 9 3 3 1 2 3 0 7 10 8 9 8 8 23 23 22 14 8 17 17 13 4 4 11 15 17 17
1 3 3 6 3 5 3 4 8 16 9 9 13 16 15 11 6 10 14 14 13 4 3 4 3 4 15 4 4 9 13 11 17 23 20 18 16 1 4 7 7 12 17 18 18
Wind_Direction
359 356 351 341 336 335 336 334 330 329 330 328 327 332 334 328 325 302 255 223 191 228 137 127 178 240 192 160 138 151 226 242 241 225 243 258 190 59 346 298 262 254 269 300 326
350 349 344 342 339 336 333 329 330 329 326 328 328 332 328 326 317 260 248 233 229 171 190 172 183 182 212 205 169 187 227 231 232 232 264 274 294 311 281 286 279 281 271 271 273
350 349 343 338 336 334 334 332 326 324 325 323 324 327 330 326 280 247 15 250 258 197 211 202 220 188 208 201 193 201 228 234 258 247 251 283 277 297 290 283 279 291 297 303 286
347 346 344 341 336 333 329 322 321 319 319 318 318 319 324 301 247 155 27 1 358 195 214 214 198 189 220 211 211 241 229 241 251 260 271 271 299 277 280 270 278 288 285 283 287
347 343 340 337 335 330 324 321 317 309 307 307 308 316 324 236 242 305 356 7 51 150 203 203 200 202 214 214 220 227 236 238 251 265 265 278 272 271 284 276 278 281 281 270 272
342 340 338 334 332 327 324 319 313 311 301 300 297 300 262 248 238 304 339 344 275 203 193 212 215 222 247 228 218 222 235 242 246 257 261 266 268 273 266 270 285 284 277 279 270
339 336 335 333 330 328 322 315 314 302 298 292 281 274 252 246 270 286 298 273 321 355 229 215 233 246 284 239 240 240 244 229 233 240 252 272 265 246 256 271 273 275 279 280 276
337 334 332 331 329 326 319 315 309 304 292 275 250 253 257 245 264 269 267 281 242 243 250 243 235 245 237 316 230 216 225 234 228 232 241 227 265 268 262 271 285 283 281 282 280
336 336 334 330 328 324 319 315 308 308 301 210 162 210 265 291 256 255 239 247 239 209 223 249 205 218 204 230 251 214 238 224 230 189 169 199 265 254 272 283 281 281 286 286 285
335 336 334 332 329 325 320 313 306 185 102 146 204 228 246 302 233 293 226 223 229 172 186 204 195 207 210 206 218 219 233 227 225 212 234 240 254 275 280 286 284 286 287 283 277
333 335 331 332 328 330 327 333 266 199 310 258 255 265 292 264 278 256 194 162 210 192 187 187 197 217 210 214 229 246 239 238 231 219 244 253 265 270 287 295 287 286 282 275 270
330 329 328 325 325 334 338 32 75 329 295 257 248 245 251 267 298 256 214 205 194 207 186 171 222 219 217 219 224 231 243 240 247 245 254 274 274 286 286 276 280 280 279 271 278
324 323 324 326 320 69 313 261 15 340 257 283 235 244 241 223 235 271 193 207 213 209 197 198 225 209 206 214 216 225 232 237 247 265 256 285 276 277 279 277 278 275 269 269 267
327 327 327 333 340 325 302 221 329 280 287 269 215 240 194 219 233 238 222 208 217 216 206 232 227 205 203 217 206 231 223 242 246 245 257 224 283 266 284 288 280 279 274 272 276
328 325 321 330 297 282 311 325 322 204 294 101 154 127 180 201 324 323 211 216 227 194 193 218 205 199 207 210 200 236 218 223 230 234 260 247 267 284 259 271 274 274 269 268 218
327 325 325 292 236 265 302 314 236 211 243 297 76 352 350 38 5 321 284 232 228 244 226 231 212 197 214 196 200 196 232 215 225 235 242 252 240 264 255 247 264 261 244 42 85
329 326 322 293 300 64 353 282 181 241 332 65 352 336 323 353 20 347 337 207 215 201 223 216 224 205 191 186 195 193 182 172 202 211 249 235 221 244 253 243 248 267 271 113 132
328 326 319 256 269 253 274 172 228 246 285 324 342 322 294 25 36 326 344 341 215 242 235 208 190 209 189 198 185 191 189 190 192 203 225 186 220 248 234 246 238 243 258 151 155
325 352 5 342 277 178 224 207 278 304 349 333 328 307 319 11 344 39 339 304 8 231 273 216 226 181 187 186 169 192 207 195 226 14 254 168 249 277 248 249 219 228 207 179 169
342 343 351 341 123 177 247 268 252 293 317 311 298 299 307 344 329 19 71 312 326 349 345 284 250 216 185 191 199 189 168 189 215 214 231 180 239 242 213 227 224 218 198 170 162
26 17 15 70 341 24 313 289 289 288 313 295 294 286 281 302 315 315 219 303 18 333 326 276 276 181 176 200 182 180 188 189 194 221 218 245 229 216 227 219 197 201 176 166 165
9 9 1 314 339 4 325 318 308 297 326 283 275 303 261 278 291 266 223 219 131 37 341 300 294 256 205 187 200 193 190 188 198 189 181 216 251 50 251 199 213 125 143 156 153
348 288 332 282 22 344 326 311 271 306 324 307 295 271 301 297 292 279 295 149 153 123 11 328 224 230 163 185 201 203 199 201 206 174 206 207 216 69 243 189 190 140 139 151 148
326 339 339 18 349 348 332 318 316 313 299 325 282 295 304 288 274 282 287 309 197 133 209 288 261 273 206 125 279 199 198 200 200 205 190 217 226 256 290 293 128 141 150 156 164
17 34 37 319 336 322 302 308 310 330 325 319 302 8 357 306 313 222 310 294 247 191 293 33 271 298 291 278 286 266 200 195 201 210 214 205 225 244 270 308 325 157 162 160 168
6 336 242 283 295 306 310 299 309 320 304 313 285 325 321 290 287 303 303 313 352 160 310 224 276 333 262 225 247 258 220 214 205 204 217 209 243 236 244 258 183 160 174 173 175
190 257 263 278 297 290 280 313 307 314 291 255 311 309 303 304 313 293 285 272 271 251 289 316 329 318 222 44 301 256 221 201 215 221 224 236 232 226 223 223 202 173 192 183 176